Regional Weather Roundup
Issued by NWS

Home | Current Version | Previous Version | Graphics & Text | Print | Product List | Glossary Off
Versions: 1 2 3 4 5 6 7 8 9 10 11 12 13 14 15 16 17 18 19 20 21 22 23 24 25 26 27 28 29 30 31 32 33 34 35 36 37 38 39 40 41 42 43 44 45 46 47 48 49 50

923
ASUS43 KMKX 271011
RWRWI

WISCONSIN REGIONAL WEATHER ROUNDUP
NATIONAL WEATHER SERVICE MILWAUKEE/SULLIVAN WI
500 AM CDT WED JUL 27 2016

NOTE: "FAIR" INDICATES FEW OR NO CLOUDS BELOW 12,000 FEET WITH NO
SIGNIFICANT WEATHER AND/OR OBSTRUCTIONS TO VISIBILITY.

WIZ001-002-006>008-014>016-023>028-271100-
NORTHWEST WISCONSIN

CITY           SKY/WX    TMP DP  RH WIND       PRES   REMARKS
SUPERIOR ARPT  MOCLDY    62  62  98 CALM      29.96R
ASHLAND        CLOUDY    68  65  90 CALM      29.96F
HAYWARD        MOCLDY    67  65  93 CALM      29.99S
SIREN          HVY RAIN  66  64  94 CALM      30.00R
CUMBERLAND     CLOUDY    64  63  94 CALM      29.98S
RICE LAKE      CLOUDY    66  64  91 CALM      29.99F
CHETEK           N/A     68  66  95 CALM      29.98F FOG
LADYSMITH      MOCLDY    66  64  91 CALM      30.01S
EAU CLAIRE     MOCLDY    69  67  93 CALM      29.97F
MENOMONIE      CLOUDY    69  67  93 CALM      29.98S
NEW RICHMOND   CLOUDY    72  67  83 SW5       29.97F
OSCEOLA        CLOUDY    71  65  83 S3        29.99S
$$

WIZ003>005-009-010-017-018-271100-
NORTH CENTRAL WISCONSIN

CITY           SKY/WX    TMP DP  RH WIND       PRES   REMARKS
MANITOWISH WTR CLOUDY    64  64 100 CALM      29.99R
ARBOR VITAE    CLOUDY    63  62  95 CALM      29.99S
WOODRUFF       CLOUDY    63  62  95 CALM      29.99S
RHINELANDER    MOCLDY    65  61  87 W5        30.00S
EAGLE RIVER    CLOUDY    61  61 100 CALM      29.99R
LAND O LAKES   CLOUDY    61  60  97 CALM      30.00S
PHILLIPS       CLOUDY    64  63  97 SW5       29.99S
TOMAHAWK       CLOUDY    60  59  96 CALM      30.00S FOG
MEDFORD        CLOUDY    62  62 100 CALM      30.00S
MERRILL        PTCLDY    62  61  98 CALM      30.00S
$$

WIZ029-030-035-036-043>047-271100-
CENTRAL WISCONSIN

CITY           SKY/WX    TMP DP  RH WIND       PRES   REMARKS
WAUSAU         CLOUDY    67  64  90 CALM      29.98R
MOSINEE        CLOUDY    64  64 100 CALM      30.01S
MARSHFIELD     PTCLDY    68  65  90 CALM      30.00R
STEVENS POINT  CLEAR     65  65  98 CALM      30.01R
WAUPACA        PTCLDY    70  69  96 CALM      30.00R
WAUTOMA        CLEAR     66  65  96 CALM      30.00R
WISC RAPIDS    PTCLDY    66  63  90 CALM      30.01R
CAMP DOUGLAS   FOG       60  60  98 NW1       30.00R VSB 1/2
$$

WIZ011>013-019>022-031-037>040-048>050-271100-
NORTHEAST WISCONSIN

CITY           SKY/WX    TMP DP  RH WIND       PRES   REMARKS
ANTIGO         PTCLDY    60  59  97 CALM      30.01R
SHAWANO        CLOUDY    69  65  86 CALM      29.99R
OCONTO         CLOUDY    70  70 100 CALM      29.95F
STURGEON BAY   PTCLDY    71  66  84 N5        29.98S
GREEN BAY      CLEAR     68  68 100 CALM      29.98R
MANITOWOC      PTCLDY    73  67  81 NW6       29.98R
APPLETON       CLEAR     68  68 100 W6        29.98R
CLINTONVILLE   MOCLDY    68  64  88 CALM      29.98S
OSHKOSH        PTCLDY    72  66  81 W6        29.98R
$$

WIZ032>034-041-042-053>061-271100-
SOUTHWEST WISCONSIN

CITY           SKY/WX    TMP DP  RH WIND       PRES   REMARKS
LA CROSSE      CLEAR     71  69  93 SE7       30.00R
SPARTA         CLEAR     60  60 100 CALM      30.02R
VIROQUA        CLEAR     64  64 100 W5        30.04R
BOSCOBEL       FOG       67  66  97 CALM      30.02R VSB 1/4
PRAIRIE DU CHI CLEAR     65  64  94 E3        30.02R
PLATTEVILLE    PTCLDY    65  65 100 CALM      30.04R
$$

WIZ056-057-062-063-064-067-068-271100-
SOUTH CENTRAL WISCONSIN

CITY           SKY/WX    TMP DP  RH WIND       PRES   REMARKS
REEDSBURG      CLEAR     65  65 100 CALM      30.01R
BARABOO/DELLS  CLEAR     65  63  93 S3        30.02R
LONE ROCK      FOG       65  64  97 CALM      30.02S VSB 1/4
MINERAL POINT  CLEAR     70  64  83 CALM      30.04S
MADISON        CLEAR     67  65  93 CALM      30.01R
MIDDLETON      CLEAR     65  65 100 CALM      30.02S
WATERTOWN      CLEAR     64  64 100 CALM      30.01R
MONROE         CLEAR     72  63  73 W8        30.04R
JANESVILLE     CLEAR     66  64  94 CALM      30.02R
$$

WIZ051-052-058>065-066-070>072-271100-
SOUTHEAST WISCONSIN

CITY           SKY/WX    TMP DP  RH WIND       PRES   REMARKS
MILWAUKEE      PTCLDY    73  65  75 SW5       30.00R
WAUKESHA       CLEAR     63  61  94 CALM      30.02R
MILWAUKEE/TIMM CLEAR     68  61  77 CALM      30.01S
RACINE         CLEAR     69  63  81 W5        30.02S
BURLINGTON     CLEAR     62  61  97 CALM      30.01R
KENOSHA        CLEAR     66  63  90 SW3       30.01S
FOND DU LAC    CLEAR     66  64  93 S6        29.99R
SHEBOYGAN      CLEAR     69  65  86 W7        29.98S
WEST BEND      CLEAR     64  63  94 CALM      30.00S
JUNEAU         CLEAR     64  63  96 SW3       30.02S
$$

LSZ147-162-271100-
LAKE SUPERIOR

STATION/POSITION TIME  TEMP    WIND        PRES    WAVE
                       AIR SEA DIR/SP/G            HT/PER
                 (UTC) (F)     (DEG/KT/KT) (MB)    (FT/S)
W MID LAKE BUOY  0950   63 61  120/  4/  6 1014.3R   0
DEVILS ISLAND    1000   68      40/  7/  7 1014.6F
PORT WING        0900   69      50/  1/  4 1014.6
SAXON HARBOR     0900   71     160/  2/  5 1014.2S
$$

LMZ867-665-643>646-271100-
LAKE MICHIGAN

STATION/POSITION TIME  TEMP    WIND        PRES    WAVE
                       AIR SEA DIR/SP/G            HT/PER
                 (UTC) (F)     (DEG/KT/KT) (MB)    (FT/S)
CHAMBERS ISLAND  0900   72     310/  8/ 11 1014.6
S GREEN BAY BUOY 0800   73 74  250/  2/  2   N/A
N MID LAKE BUOY  0950   71 69  280/  6/ 10 1013.4F   2/ 5
NORTHPORT PIER   0900   69     300/  8/ 12 1014.6F
SISTER BAY       0906   72     350/ 11/ 12   N/A
ALGOMA LAKESHORE 0913           30/ 14/ 18   N/A
KEWAUNEE LAKESHO 0900   74     300/  6/ 11 1014.0R
SHEBOYGAN LAKESH 1000   72     230/  4/  5 1015.0R
PORT WASHINGTON  0940   67     210/  2/  4 1015.9R
ATWATER BUOY     1000   66 54  190/  2/  2 1017.4R
MILWAUKEE LAKESH 0910   75     280/  4/  5   N/A
S MID LAKE BUOY  0950   75 75  220/  6/  8 1015.2R   0
KENOSHA   LAKESH 1000   73     260/  6/  8 1015.9R
$$

TC  - TEMPERATURE IN CELSIUS
VSB - VISIBILITY IN STATUTE MILES
WCI - WIND CHILL INDEX
HX  - HEAT INDEX





USA.gov is the U.S. government's official web portal to all federal, state and local government web resources and services.